Weather History for Gonzales, LA

Change the Weather History Date:

Monday, March 10, 2014

  Actual Average (KBTR) Record (KBTR)
Temperature  
Mean Temperature 63 °F 60 °F  
Max Temperature 77 °F 71 °F 89 °F (1911)
Min Temperature 50 °F 49 °F 25 °F (1932)
Degree Days  
Heating Degree Days 2 6  
Month to date heating degree days 71  
Since 1 July heating degree days 1406  
Cooling Degree Days 0 2  
Month to date cooling degree days 13  
Year to date cooling degree days 44  
Growing Degree Days 13 (Base 50)    
Moisture  
Dew Point 54 °F    
Average Humidity 72    
Maximum Humidity 100    
Minimum Humidity 44    
Precipitation  
Precipitation 0.00 in 0.14 in 4.30 in (1913)
Month to date precipitation 1.50  
Year to date precipitation 12.26  
Snow  
Snow 0.00 in - - ()
Month to date snowfall  
Since 1 July snowfall  
Snow Depth -    
Sea Level Pressure  
Sea Level Pressure 30.08 in    
Wind  
Wind Speed 1 mph (SSE)    
Max Wind Speed 7 mph    
Max Gust Speed 37 mph    
Visibility 9 miles    
Events      
T = Trace of Precipitation, MM = Missing Value Source: NWS Daily Summary

Daily Weather History Graph

Daily Weather History Graph

Search for Another Location

Airport:

Trip Planner

Search our weather history database for the weather conditions in past years. The results will help you decide how hot, cold, wet, or windy it might be!

Date:

Astronomy

Mar. 10, 2014 Rise Set
Actual Time 7:19 AM CDT 7:08 PM CDT
Civil Twilight 6:55 AM CDT 7:32 PM CDT
Nautical Twilight 6:27 AM CDT 8:00 PM CDT
Astronomical Twilight 6:00 AM CDT 8:28 PM CDT
Moon 2:09 PM CDT (3/10) 3:14 AM CDT (3/10)
Length of Visible Light 12h 37m
Length of Day
11h 49m
Waxing Gibbous, 70% of the Moon is Illuminated
Mar 10
Waxing Gibbous
Mar 16
Full
Mar 23
Last Quarter
Mar 30
New
Apr 7
First Quarter

Hourly Weather History & Observations

Time (CDT) Temp. Dew Point Humidity Pressure Visibility Wind Dir Wind Speed Gust Speed Precip Events Conditions
12:15 AM 55.8 °F 53.2 °F 91% 30.18 in 10.0 mi Calm Calm - N/A   Clear
12:35 AM 54.7 °F 52.9 °F 94% 30.17 in 10.0 mi Calm Calm - N/A   Clear
12:55 AM 54.5 °F 52.7 °F 94% 30.16 in 10.0 mi Calm Calm - N/A   Clear
1:15 AM 54.3 °F 52.9 °F 95% 30.15 in 10.0 mi Calm Calm - N/A   Clear
1:35 AM 54.0 °F 52.9 °F 96% 30.15 in 10.0 mi NW 3.5 mph - N/A   Clear
1:55 AM 53.6 °F 53.2 °F 99% 30.15 in 10.0 mi Calm Calm - N/A   Clear
2:15 AM 55.4 °F 54.0 °F 95% 30.15 in 10.0 mi Calm Calm - N/A   Clear
2:35 AM 53.6 °F 52.5 °F 96% 30.14 in 10.0 mi Calm Calm - N/A   Clear
2:55 AM 52.7 °F 52.3 °F 99% 30.14 in 10.0 mi Calm Calm - N/A   Clear
3:15 AM 52.7 °F 51.8 °F 97% 30.13 in 10.0 mi Calm Calm - N/A   Clear
3:35 AM 52.7 °F 52.7 °F 100% 30.12 in 5.0 mi Calm Calm - N/A   Clear
3:55 AM 51.8 °F 51.8 °F 100% 30.12 in 5.0 mi Calm Calm - N/A   Clear
4:15 AM 52.3 °F 52.2 °F 99% 30.12 in 10.0 mi Calm Calm - N/A   Clear
4:35 AM 52.2 °F 52.2 °F 100% 30.12 in 7.0 mi Calm Calm - N/A   Clear
4:55 AM 52.2 °F 52.2 °F 100% 30.12 in 7.0 mi Calm Calm - N/A   Clear
5:15 AM 50.9 °F 50.9 °F 100% 30.12 in 5.0 mi Calm Calm - N/A   Clear
5:35 AM 50.9 °F 50.9 °F 100% 30.12 in 5.0 mi NNW 3.5 mph - N/A   Clear
5:55 AM 51.8 °F 51.8 °F 100% 30.13 in 7.0 mi North 3.5 mph - N/A   Clear
6:15 AM 53.1 °F 52.7 °F 99% 30.14 in 7.0 mi NNW 3.5 mph - N/A   Clear
6:35 AM 52.3 °F 52.2 °F 99% 30.14 in 7.0 mi NNW 3.5 mph - N/A   Clear
6:55 AM 53.1 °F 52.7 °F 99% 30.15 in 7.0 mi North 4.6 mph - N/A   Clear
7:15 AM 53.2 °F 52.2 °F 96% 30.15 in 7.0 mi North - - N/A   Clear
7:35 AM 52.0 °F 51.3 °F 97% 30.15 in 5.0 mi North - - N/A   Clear
7:55 AM 52.3 °F 51.8 °F 98% 30.16 in 5.0 mi Calm Calm - N/A   Clear
8:15 AM 54.5 °F 52.3 °F 92% 30.16 in 7.0 mi Calm Calm - N/A   Clear
8:35 AM 56.3 °F 52.2 °F 86% 30.16 in 7.0 mi NNE 3.5 mph - N/A   Clear
8:55 AM 58.3 °F 52.3 °F 81% 30.16 in 10.0 mi Calm Calm - N/A   Clear
9:15 AM 59.9 °F 52.0 °F 75% 30.16 in 10.0 mi NE 3.5 mph - N/A   Clear
9:35 AM 61.7 °F 51.8 °F 70% 30.16 in 10.0 mi ENE 4.6 mph - N/A   Clear
9:55 AM 63.7 °F 52.9 °F 68% 30.17 in 10.0 mi Calm Calm - N/A   Clear
10:15 AM 65.1 °F 52.7 °F 64% 30.16 in 10.0 mi Calm Calm - N/A   Clear
10:35 AM 66.6 °F 52.3 °F 60% 30.16 in 10.0 mi NE 3.5 mph - N/A   Clear
10:55 AM 68.2 °F 52.9 °F 58% 30.15 in 10.0 mi NE 3.5 mph - N/A   Clear
11:15 AM 68.9 °F 53.4 °F 58% 30.14 in 10.0 mi NE 4.6 mph - N/A   Clear
11:35 AM 70.5 °F 53.6 °F 55% 30.13 in 10.0 mi Calm Calm - N/A   Clear
11:55 AM 70.9 °F 53.8 °F 55% 30.13 in 10.0 mi Calm Calm - N/A   Clear
12:15 PM 72.5 °F 53.2 °F 51% 30.13 in 10.0 mi Calm Calm - N/A   Clear
12:35 PM 72.7 °F 54.0 °F 52% 30.11 in 10.0 mi SE 3.5 mph - N/A   Clear
12:55 PM 73.4 °F 54.3 °F 51% 30.10 in 10.0 mi South 5.8 mph - N/A   Clear
1:15 PM 73.8 °F 54.0 °F 50% 30.09 in 10.0 mi Calm Calm - N/A   Clear
1:35 PM 73.8 °F 53.8 °F 50% 30.08 in 10.0 mi SE 5.8 mph - N/A   Clear
1:55 PM 75.0 °F 54.0 °F 48% 30.06 in 10.0 mi SE 5.8 mph - N/A   Clear
2:15 PM 74.7 °F 52.2 °F 45% 30.05 in 10.0 mi SSE 4.6 mph - N/A   Clear
2:35 PM 74.7 °F 54.1 °F 49% 30.03 in 10.0 mi South 4.6 mph - N/A   Clear
2:55 PM 75.4 °F 54.0 °F 47% 30.03 in 10.0 mi SSE 6.9 mph - N/A   Clear
3:15 PM 75.7 °F 54.5 °F 48% 30.02 in 10.0 mi SE 3.5 mph - N/A   Clear
3:35 PM 75.7 °F 53.6 °F 46% 30.00 in 10.0 mi South 4.6 mph - N/A   Clear
3:55 PM 76.8 °F 53.6 °F 44% 29.99 in 10.0 mi Calm Calm - N/A   Clear
4:15 PM 76.6 °F 54.0 °F 45% 29.98 in 10.0 mi WSW 3.5 mph - N/A   Clear
4:35 PM 76.3 °F 54.5 °F 47% 29.98 in 10.0 mi SSE 5.8 mph - N/A   Clear
4:55 PM 76.3 °F 54.0 °F 46% 29.98 in 10.0 mi Calm Calm - N/A   Clear
5:15 PM 75.6 °F 54.0 °F 47% 29.98 in 10.0 mi South 4.6 mph - N/A   Clear
5:35 PM 76.3 °F 54.0 °F 46% 29.98 in 10.0 mi Calm Calm - N/A   Clear
5:55 PM 75.4 °F 54.0 °F 47% 29.98 in 10.0 mi West 5.8 mph - N/A   Clear
6:15 PM 74.5 °F 54.3 °F 49% 29.98 in 10.0 mi SW 4.6 mph - N/A   Clear
6:35 PM 73.9 °F 52.9 °F 48% 29.98 in 10.0 mi WSW 3.5 mph 36.8 mph N/A   Clear
6:55 PM 73.4 °F 52.9 °F 49% 29.98 in 10.0 mi Calm Calm - N/A   Clear
7:20 PM 73.0 °F 52.3 °F 48% 29.98 in 10.0 mi Calm Calm - N/A   Clear
7:35 PM 72.1 °F 52.3 °F 50% 29.97 in 10.0 mi Calm Calm - N/A   Clear
7:55 PM 70.3 °F 53.6 °F 55% 29.98 in 10.0 mi Calm Calm - N/A   Clear
8:15 PM 69.6 °F 53.6 °F 57% 29.98 in 10.0 mi Calm Calm - N/A   Clear
8:35 PM 67.1 °F 54.3 °F 63% 29.98 in 10.0 mi SW 3.5 mph - N/A   Clear
8:55 PM 67.1 °F 54.3 °F 63% 29.99 in 10.0 mi Calm Calm - N/A   Clear
9:15 PM 64.9 °F 54.7 °F 69% 29.99 in 10.0 mi Calm Calm - N/A   Clear
9:35 PM 64.6 °F 55.6 °F 73% 29.99 in 10.0 mi South 3.5 mph - N/A   Clear
9:55 PM 66.6 °F 58.6 °F 76% 29.99 in 10.0 mi South 3.5 mph - N/A   Scattered Clouds
10:15 PM 66.4 °F 59.5 °F 79% 29.99 in 10.0 mi Calm Calm - N/A   Overcast
10:35 PM 66.6 °F 59.4 °F 78% 29.99 in 10.0 mi South 3.5 mph - N/A   Overcast
10:55 PM 65.8 °F 59.9 °F 81% 29.99 in 10.0 mi Calm Calm - N/A   Scattered Clouds
11:15 PM 65.3 °F 60.3 °F 84% 29.99 in 10.0 mi Calm Calm - N/A   Scattered Clouds
11:35 PM 64.8 °F 60.8 °F 87% 29.98 in 10.0 mi South 3.5 mph - N/A   Scattered Clouds
11:55 PM 64.8 °F 60.8 °F 87% 29.97 in 10.0 mi Calm Calm - N/A   Scattered Clouds